Regional Weather Roundup
Issued by NWS Charleston, SC

Current Version | Previous Version | Text Only | Print | Product List | Glossary Off
Versions: 1 2 3 4 5 6 7 8 9 10 11 12 13 14 15 16 17 18 19 20 21 22 23 24 25 26 27 28 29 30 31 32 33 34 35 36 37 38 39 40 41 42 43 44 45 46 47 48 49 50
000 ASUS42 KCHS 271113 RWRCHS REGIONAL WEATHER ROUNDUP NATIONAL WEATHER SERVICE CHARLESTON SC 700 AM EDT MON JUN 27 2016 NOTE: "FAIR" INDICATES FEW OR NO CLOUDS BELOW 12,000 FEET WITH NO SIGNIFICANT WEATHER AND/OR OBSTRUCTIONS TO VISIBILITY. NOT ALL STATIONS ARE QUALITY CONTROLLED. USE DATA WITH CAUTION... ESPECIALLY DEWPOINT OBSERVATIONS. SCZ027-030-031-034>040-042>050-271200- ...SOUTHEAST SOUTH CAROLINA... CITY SKY/WX TMP DP RH WIND PRES REMARKS N CHARLESTON PTCLDY 73 71 93 N5 30.09S WATERFRONT PRK N/A 75 74 97 N7 30.06S MOUNT PLEASANT FAIR 73 73 100 CALM 30.09R FOG JOHNS ISLAND FAIR 73 73 100 NW6 30.09R FOG PINOPOLIS N/A 79 75 89 N7 30.01S MONCKS CORNER FAIR 68 66 94 CALM 30.10R SUMMERVILLE NOT AVBL BEAUFORT MCAS PTCLDY 75 73 93 N6 30.10R BEAUFORT ARPT FAIR 73 72 94 N6 30.09S FOG HILTON HEAD IS PTCLDY 75 75 100 N3 30.10R WALTERBORO SUNNY 72 72 100 CALM 30.11S ALLENDALE FAIR 72 70 94 CALM 30.10S ...SOUTHERN MIDLANDS AND PEE DEE... CITY SKY/WX TMP DP RH WIND PRES REMARKS GEORGETOWN NOT AVBL KINGSTREE FAIR 68 66 94 CALM 30.11S FOG ORANGEBURG PTCLDY 71 69 93 CALM 30.11S BARNWELL FAIR 72 72 100 CALM 30.12S AIKEN FAIR 70 68 94 CALM 30.15S MANNING FAIR 68 64 88 CALM 30.11S COLUMBIA PTCLDY 71 67 87 CALM 30.11S SUMTER CLEAR 71 68 90 CALM 30.09S FLORENCE PTCLDY 72 69 90 N5 30.12R MYRTLE BEACH PTCLDY 75 66 73 NE7 30.11F N MYRTLE BEACH CLOUDY 75 72 90 NE9 30.10S $$ GAZ063-065-086>088-099>101-113>116-118-119-134>141-150-271200- ...SOUTHEAST GEORGIA... CITY SKY/WX TMP DP RH WIND PRES REMARKS SAVANNAH ARPT PTCLDY 74 71 91 N3 30.10S HUNTER AAF CLEAR 74 74 100 NW6 30.07S FORT STEWART PTCLDY 74 73 95 CALM 30.07S STATESBORO CLEAR 75 75 99 CALM 30.10S FOG SYLVANIA SUNNY 76 74 94 CALM 30.11S FOG CLAXTON PTSUNNY 74 74 100 CALM 30.10S FOG ...CSRA...CENTRAL AND FAR SOUTHEAST GEORGIA... CITY SKY/WX TMP DP RH WIND PRES REMARKS THOMSON MOCLDY 75 74 95 CALM 30.15S AUGUSTA-BUSH MOCLDY 73 72 96 CALM 30.10S FOG AUGUSTA-DANIEL PTCLDY 75 72 90 SE7 30.12S FOG SWAINSBORO PTSUNNY 73 72 94 CALM 30.11S VIDALIA MOCLDY 73 72 94 CALM 30.11S FOG EASTMAN FAIR 69 69 98 CALM 30.14R FOG HAZLEHURST PTSUNNY 73 73 100 CALM 30.10S FOG ALMA FOG 73 73 100 W3 30.11R VSB<1/4 WAYCROSS FOG 76 76 100 CALM 30.10S VSB<1/4 JESUP FOG 73 73 100 CALM 30.09F VSB<1/4 BAXLEY FOG 73 73 100 CALM 30.10S VSB<1/4 BRUNSWICK FOG 75 75 100 CALM 30.09F VSB 1/2 SAINT SIMONS CLEAR 76 76 100 NW3 30.08S $$ SCZ027-028-034-036>038-045-046-048>050-GAZ119-141-271200- ...LAKE AND SUPPLEMENTAL COASTAL OBSERVATIONS... STATION/POSITION TIME TEMP WIND PRES WAVE SWELL AIR SEA DIR/SP/G HT/PER HT/PER/DIR (UTC) (F) (DEG/KT/KT) (MB) (FT/S) (FT/S/D) WINYAH BAY NOT AVBL LAKE MURRAY 1000 77 170/ 5/ 6 1019.0S ACE BASIN NERRS NOT AVBL FORT PULASKI 1000 77 84 310/ 4/ 5 1019.2R SAPELO ISLAND 1000 77 350/ 3 1019.0S $$ ANZ835-935-AMZ111-154-330-350-352-354-370-450-454-472-271200- ...C-MAN AND BUOY OBSERVATIONS... STATION/POSITION TIME TEMP WIND PRES WAVE SWELL AIR SEA DIR/SP/G HT/PER HT/PER/DIR (UTC) (F) (DEG/KT/KT) (MB) (FT/S) (FT/S/D) BUOY 41004 1050 76 81 360/ 12/ 14 1018.0R 3/ 8 2/120/ 8 BUOY 41008 1050 80 82 360/ 8/ 10 1018.3R 2/ 8 2/ 90/ 8 FOLLY BEACH CMAN 1000 76 340/ 5/ 7 1018.7R CAPERS NEARSHORE 1008 79 81 90/ 12/ 14 1018.1R FRIPP NEARSHORE 1008 78 83 20/ 12/ 14 1018.0R STATION/POSITION TIME TEMP WIND PRES WAVE SWELL AIR SEA DIR/SP/G HT/PER HT/PER/DIR (UTC) (F) (DEG/KT/KT) (MB) (FT/S) (FT/S/D) 5E ST. MARYS GA NOT AVBL FRYING PAN BUOY 1000 80 80 80/ 12/ 14 1018.5R BUOY 41025 1050 80 81 120/ 2/ 4 1019.7R 3/ 9 3/ 50/ 9 CAPE LOOKOUT NC 1100 75 30/ 8/ 9 1019.2F BUOY 41002 1050 79 79 60/ 2/ 2 1018.3R 3/ 7 3/ 40/ 7 BUOY 41010 1020 81 83 230/ 12/ 16 1017.3R ST AUGUSTINE FL 1100 76 83 280/ 5/ 6 1019.3R $$

USA.gov is the U.S. government's official web portal to all federal, state and local government web resources and services.